Location: Newark
(31.5350°N, 35.0986°E)
Time: 19:16:48
(UTC+00:00)

Vanguard 1 - Pass Details

Date: 29 September 2019
Orbit: 653 x 3830 km, 34.2° (Epoch: 22 October)

Event Time Altitude Azimuth Distance (km) Brightness Sun altitude
Rises 20:23:49 0° 233° (SW) 6,065 14.1 -57.1°
Enters shadow 20:25:56 - 232° (SW) 5,635 13.8 -57.3°
Reaches altitude 10° 20:27:12 10° 231° (SW) 5,393 - -57.5°
Maximum altitude 20:45:12 71° 150° (SSE) 3,734 - -59.2°
Exits shadow 21:00:19 30° 77° (ENE) 5,385 13.6 -60.2°
Drops below altitude 10° 21:08:44 10° 72° (ENE) 6,766 14.3 -60.6°
Sets 21:13:36 0° 71° (ENE) 7,600 14.7 -60.8°
